GW0704 Weather Reports


time (UTC)temp
F
wind
direction
speed
knots
gust
knots
rain 1hr
in
rain 24hr
in
rain mn
in
humidity
%
barometer
mb
20260505200405 81 325 7.8 20.0 0.00 0.00 0.00 37 999.4
20260505195904 81 351 14.8 24.3 0.00 0.00 0.00 35 999.5
20260505195405 81 343 13.0 25.2 0.00 0.00 0.00 35 999.6
20260505194904 82 319 7.8 18.2 0.00 0.00 0.00 35 999.6
20260505194404 82 331 8.7 18.2 0.00 0.00 0.00 35 999.6
20260505193904 81 308 11.3 25.2 0.00 0.00 0.00 35 999.6
20260505192904 81 321 13.0 21.7 0.00 0.00 0.00 35 999.7
20260505192404 82 355 9.6 19.1 0.00 0.00 0.00 37 999.9
20260505191905 82 311 2.6 11.3 0.00 0.00 0.00 38 999.8
20260505190904 81 17 7.8 15.6 0.00 0.00 0.00 39 999.9
20260505190405 80 347 13.9 22.6 0.00 0.00 0.00 39 1000.1
20260505185904 80 320 12.2 20.9 0.00 0.00 0.00 40 1000.3
20260505185404 80 341 7.8 20.0 0.00 0.00 0.00 39 1000.4
20260505184904 80 319 12.2 21.7 0.00 0.00 0.00 40 1000.4
20260505184404 80 337 8.7 19.1 0.00 0.00 0.00 42 1000.4
20260505183904 80 335 6.1 15.6 0.00 0.00 0.00 39 1000.4
20260505183404 80 319 8.7 17.4 0.00 0.00 0.00 40 1000.6
20260505182904 80 333 7.0 14.8 0.00 0.00 0.00 41 1000.7
20260505182405 79 324 10.4 19.1 0.00 0.00 0.00 41 1000.7
20260505181904 79 6 12.2 20.0 0.00 0.00 0.00 42 1000.8
20260505181404 78 338 10.4 18.2 0.00 0.00 0.00 42 1001.0
20260505180904 79 332 8.7 22.6 0.00 0.00 0.00 41 1001.1
20260505175404 78 311 8.7 19.1 0.00 0.00 0.00 44 1001.2
20260505174904 78 319 12.2 20.0 0.00 0.00 0.00 44 1001.2
20260505174404 77 312 11.3 22.6 0.00 0.00 0.00 44 1001.5
20260505172904 77 282 10.4 20.9 0.00 0.00 0.00 45 1001.6
20260505172405 77 323 7.8 17.4 0.00 0.00 0.00 46 1001.7
20260505171404 76 327 9.6 19.1 0.00 0.00 0.00 45 1002.0
20260505170904 76 336 11.3 20.9 0.00 0.00 0.00 47 1002.1
20260505170404 75 323 7.8 18.2 0.00 0.00 0.00 46 1002.1
20260505165904 75 324 7.8 17.4 0.00 0.00 0.00 48 1002.2
20260505165404 74 312 4.3 14.8 0.00 0.00 0.00 49 1002.4
20260505164904 74 309 11.3 18.2 0.00 0.01 0.00 48 1002.4
20260505164405 74 317 6.1 17.4 0.00 0.01 0.00 46 1002.3
20260505163903 74 348 6.1 14.8 0.00 0.01 0.00 47 1002.5
20260505163404 74 332 8.7 21.7 0.00 0.01 0.00 47 1002.5
20260505162904 75 338 8.7 17.4 0.00 0.01 0.00 47 1002.6
20260505162404 76 334 7.0 18.2 0.00 0.01 0.00 49 1002.6
20260505161904 76 313 6.1 18.2 0.00 0.02 0.00 49 1002.8
20260505161404 75 346 2.6 11.3 0.00 0.03 0.00 49 1002.8
20260505160404 75 326 6.1 19.1 0.00 0.04 0.00 49 1003.0
20260505152904 73 319 7.0 17.4 0.00 0.04 0.00 50 1003.6
20260505152404 72 298 4.3 12.2 0.00 0.04 0.00 50 1003.7
20260505151404 70 320 3.5 13.0 0.00 0.04 0.00 53 1003.9
20260505150903 69 318 5.2 14.8 0.00 0.04 0.00 51 1003.9
20260505150404 69 313 4.3 12.2 0.00 0.04 0.00 51 1004.0
20260505140404 66 333 7.0 12.2 0.00 0.04 0.00 54 1004.0
20260505124404 60 319 6.1 12.2 0.00 0.04 0.00 63 1004.7
20260505123904 60 313 7.0 11.3 0.00 0.04 0.00 65 1004.6
20260505123404 59 328 7.0 14.8 0.00 0.04 0.00 65 1004.7
20260505122405 56 309 6.1 10.4 0.00 0.04 0.00 77 1004.7
20260505121904 55 144 0.0 0.0 0.00 0.04 0.00 78 1004.8
20260505121404 54 144 0.0 0.0 0.00 0.04 0.00 81 1004.9
20260505120904 53 144 0.0 0.0 0.00 0.04 0.00 81 1005.1
20260505120405 53 144 0.0 4.3 0.00 0.04 0.00 82 1005.2
20260505115905 52 49 0.0 0.0 0.00 0.04 0.00 85 1005.3
20260505115404 51 49 0.0 0.0 0.00 0.04 0.00 88 1005.3
20260505114904 49 49 0.0 0.0 0.00 0.04 0.00 90 1005.4
20260505114404 48 49 0.0 0.0 0.00 0.04 0.00 92 1005.4
20260505113904 47 49 0.0 0.0 0.00 0.04 0.00 94 1005.4
20260505113404 47 49 0.0 0.0 0.00 0.04 0.00 95 1005.3
20260505112904 46 49 0.0 0.0 0.00 0.04 0.00 97 1005.3
20260505111904 44 49 0.0 0.0 0.00 0.04 0.00 97 1005.6
20260505111405 43 49 0.0 0.0 0.00 0.04 0.00 97 1005.5
20260505110904 42 49 0.0 0.0 0.00 0.04 0.00 97 1005.5
20260505110404 42 49 0.0 0.0 0.00 0.04 0.00 97 1005.4
20260505101905 40 49 0.0 0.0 0.00 0.04 0.00 96 1005.5
20260505101405 40 49 0.0 0.0 0.00 0.04 0.00 96 1005.5
20260505100904 40 49 0.0 0.0 0.00 0.04 0.00 96 1005.3
20260505100404 39 49 0.0 0.0 0.00 0.04 0.00 96 1005.3
20260505095904 39 49 0.0 0.0 0.00 0.04 0.00 96 1005.3
20260505095404 39 49 0.0 0.0 0.00 0.04 0.00 96 1005.2
20260505094905 39 49 0.0 0.0 0.00 0.04 0.00 96 1005.1
20260505094404 39 49 0.0 0.0 0.00 0.04 0.00 96 1005.2
20260505093904 39 49 0.0 0.0 0.00 0.04 0.00 96 1005.2
20260505093404 40 49 0.0 0.0 0.00 0.04 0.00 96 1005.3
20260505092905 40 49 0.0 0.0 0.00 0.04 0.00 96 1005.3
20260505091404 40 49 0.0 0.0 0.00 0.04 0.00 96 1005.2
20260505090904 40 49 0.0 0.0 0.00 0.04 0.00 96 1005.3
20260505085904 40 49 0.0 0.0 0.00 0.04 0.00 96 1005.3
20260505085404 40 49 0.0 0.0 0.00 0.04 0.00 96 1005.4
20260505083904 40 49 0.0 0.0 0.00 0.04 0.00 96 1005.5
20260505083404 40 49 0.0 0.0 0.00 0.04 0.00 96 1005.5
20260505082904 40 49 0.0 0.0 0.00 0.04 0.00 96 1005.6
20260505082404 41 49 0.0 0.0 0.00 0.04 0.00 96 1005.6
20260505081904 41 49 0.0 0.0 0.00 0.04 0.00 96 1005.6
20260505081404 41 49 0.0 0.0 0.00 0.04 0.00 96 1005.6
20260505080904 41 49 0.0 0.0 0.00 0.04 0.00 96 1005.6
20260505075904 41 49 0.0 0.0 0.00 0.04 0.00 96 1005.7
20260505075404 41 49 0.0 0.0 0.00 0.04 0.00 95 1005.7
20260505074904 41 49 0.0 0.0 0.00 0.04 0.00 95 1005.7
20260505074404 40 49 0.0 0.0 0.00 0.04 0.00 95 1005.7
20260505073904 41 49 0.0 0.0 0.00 0.04 0.00 95 1005.7
20260505073404 40 49 0.0 0.0 0.00 0.04 0.00 95 1005.7
20260505072905 40 49 0.0 0.0 0.00 0.04 0.00 95 1005.8
20260505072403 40 49 0.0 0.0 0.00 0.04 0.00 95 1005.8
20260505071404 40 49 0.0 0.0 0.00 0.04 0.00 94 1005.7
20260505070904 41 49 0.0 0.0 0.00 0.04 0.00 95 1005.8
20260505065904 41 49 0.0 0.0 0.00 0.04 0.00 94 1005.7
20260505065404 41 49 0.0 0.0 0.00 0.04 0.00 94 1005.7
20260505064904 41 49 0.0 0.0 0.00 0.04 0.00 94 1005.7
20260505064404 41 49 0.0 0.0 0.00 0.04 0.00 94 1005.7
20260505062904 42 49 0.0 0.0 0.00 0.04 0.00 94 1005.7
20260505062405 42 49 0.0 0.0 0.00 0.04 0.00 94 1005.6
20260505061903 42 49 0.0 0.0 0.00 0.04 0.00 93 1005.6
20260505061404 42 49 0.0 0.0 0.00 0.04 0.00 93 1005.6
20260505060904 42 49 0.0 0.0 0.00 0.04 0.00 93 1005.6
20260505060404 42 49 0.0 0.0 0.00 0.04 0.00 93 1005.6
20260505055904 42 49 0.0 0.0 0.00 0.04 0.00 92 1005.6
20260505055404 42 49 0.0 0.0 0.00 0.04 0.00 92 1005.6
20260505054904 43 49 0.0 0.0 0.00 0.04 0.00 91 1005.7
20260505054404 43 49 0.0 0.0 0.00 0.04 0.00 90 1005.6
20260505053904 44 49 0.0 0.0 0.00 0.04 0.00 89 1005.7
20260505053404 45 49 0.0 0.0 0.00 0.04 0.00 90 1005.6
20260505052904 45 49 0.0 0.0 0.00 0.04 0.00 93 1005.6
20260505052404 44 49 0.0 0.0 0.00 0.04 0.00 92 1005.6
20260505051904 44 49 0.0 0.0 0.00 0.04 0.00 92 1005.6
20260505051404 43 49 0.0 0.0 0.00 0.04 0.00 91 1005.7
20260505050904 44 49 0.0 0.0 0.00 0.04 0.00 88 1005.7
20260505050404 45 49 0.0 0.0 0.00 0.04 0.00 90 1005.7
20260505041404 46 49 0.0 0.0 0.00 0.04 0.00 88 1005.2
20260505040904 47 49 0.0 0.0 0.00 0.04 0.00 89 1005.2
20260505040404 47 49 0.0 0.0 0.00 0.04 0.00 89 1005.2
20260505035904 47 49 0.0 0.0 0.00 0.04 0.04 88 1005.2
20260505035404 47 49 0.0 0.0 0.00 0.04 0.04 88 1005.1
20260505034404 47 49 0.0 0.0 0.00 0.04 0.04 87 1005.0
20260505033904 48 49 0.0 0.0 0.00 0.04 0.04 87 1004.9
20260505033404 48 49 0.0 0.0 0.00 0.04 0.04 87 1004.9
20260505032905 48 49 0.0 0.0 0.00 0.04 0.04 87 1004.9
20260505032405 48 49 0.0 0.0 0.00 0.04 0.04 86 1004.9
20260505031905 48 49 0.0 0.0 0.00 0.04 0.04 86 1004.9
20260505031404 49 49 0.0 0.0 0.00 0.04 0.04 84 1004.9
20260505030904 49 49 0.0 0.0 0.00 0.04 0.04 83 1004.8
20260505030405 50 49 0.0 0.0 0.00 0.04 0.04 81 1004.9
20260505025905 50 49 0.0 0.0 0.00 0.04 0.04 80 1004.8
20260505024904 51 49 0.0 0.0 0.00 0.04 0.04 82 1004.9
20260505024404 51 49 0.0 0.0 0.00 0.04 0.04 82 1005.0
20260505023904 50 49 0.0 0.0 0.00 0.04 0.04 82 1005.0
20260505023404 50 49 0.0 0.0 0.00 0.04 0.04 82 1005.0
20260505022404 50 49 0.0 0.0 0.00 0.04 0.04 82 1005.0
20260505021905 51 49 0.0 0.0 0.00 0.04 0.04 81 1005.1
20260505021405 51 49 0.0 0.0 0.00 0.04 0.04 80 1005.1
20260505020904 51 49 0.0 0.0 0.00 0.04 0.04 80 1005.1
20260505020404 51 49 0.0 0.0 0.00 0.04 0.04 80 1005.1
20260505015904 51 49 0.0 0.0 0.00 0.04 0.04 80 1005.1
20260505015404 52 49 0.0 0.0 0.00 0.04 0.04 80 1005.0
20260505014904 52 49 0.0 0.0 0.00 0.04 0.04 79 1005.0
20260505014404 52 49 0.0 0.0 0.00 0.04 0.04 79 1004.9
20260505013904 52 49 0.0 0.0 0.00 0.04 0.04 79 1004.8
20260505013404 52 49 0.0 0.0 0.00 0.04 0.04 78 1004.8
20260505012404 53 49 0.0 0.0 0.00 0.04 0.04 77 1004.7
20260505011405 53 49 0.0 0.0 0.00 0.04 0.04 76 1004.7
20260505010905 53 49 0.0 0.0 0.00 0.04 0.04 76 1004.6
20260505010404 54 49 0.0 0.0 0.00 0.04 0.04 75 1004.5
20260505005404 53 49 0.0 0.0 0.00 0.04 0.04 76 1004.5
20260505004404 54 49 0.0 0.0 0.00 0.04 0.04 74 1004.4
20260505003904 54 49 0.0 0.0 0.00 0.04 0.04 74 1004.4
20260505003404 54 49 0.0 0.0 0.00 0.04 0.04 73 1004.3
20260505002904 55 49 0.0 0.0 0.00 0.04 0.04 72 1004.2
20260505001904 55 49 0.0 0.0 0.00 0.04 0.04 70 1004.0
20260505001404 56 49 0.0 0.0 0.00 0.04 0.04 68 1003.9
20260505000904 56 49 0.0 0.0 0.00 0.04 0.04 67 1003.8
20260505000405 57 49 0.9 2.6 0.00 0.04 0.04 65 1003.7
20260504235904 58 49 0.9 2.6 0.00 0.04 0.04 62 1003.6
20260504235404 59 49 0.0 0.0 0.00 0.04 0.04 60 1003.6
20260504234904 59 49 0.0 0.0 0.00 0.04 0.04 59 1003.5
20260504234404 59 49 0.0 0.0 0.00 0.04 0.04 60 1003.4
20260504233904 59 49 0.0 0.0 0.00 0.04 0.04 60 1003.4
20260504232904 62 49 0.0 0.0 0.00 0.04 0.04 52 1003.3
20260504232404 62 49 0.0 0.0 0.00 0.04 0.04 51 1003.2
20260504231404 62 49 0.0 0.0 0.00 0.04 0.04 53 1003.2
20260504230904 62 49 0.0 0.0 0.00 0.04 0.04 55 1003.1
20260504230403 63 49 0.0 0.0 0.00 0.04 0.04 51 1003.1
20260504225904 63 49 0.0 0.0 0.00 0.04 0.04 50 1003.1
20260504225404 63 49 0.0 0.0 0.00 0.04 0.04 50 1003.0
20260504223904 64 49 0.0 1.7 0.00 0.04 0.04 50 1002.8
20260504223404 64 49 0.0 0.0 0.00 0.04 0.04 50 1002.8
20260504222404 65 49 0.0 0.0 0.00 0.04 0.04 48 1002.9
20260504221404 65 49 0.9 2.6 0.00 0.04 0.04 49 1002.9
20260504220904 65 49 0.9 4.3 0.00 0.04 0.04 49 1002.9
20260504220404 65 76 0.9 4.3 0.00 0.04 0.04 47 1002.9
20260504215904 65 95 0.0 1.7 0.00 0.04 0.04 48 1002.9
20260504214904 65 18 0.0 0.0 0.00 0.04 0.04 49 1003.0
20260504214404 65 16 0.0 2.6 0.00 0.04 0.04 50 1003.1
20260504213904 64 16 2.6 8.7 0.00 0.04 0.04 50 1003.1
20260504212904 65 354 2.6 7.8 0.00 0.04 0.04 51 1003.1
20260504212404 64 58 1.7 8.7 0.00 0.04 0.04 49 1003.2
20260504211904 64 44 1.7 7.8 0.00 0.04 0.04 51 1003.2
20260504211404 63 51 1.7 5.2 0.00 0.04 0.04 51 1003.2
20260504210904 63 32 0.9 10.4 0.00 0.04 0.04 52 1003.2
20260504210404 63 78 1.7 11.3 0.00 0.04 0.04 51 1003.1
20260504205904 63 48 2.6 10.4 0.00 0.04 0.04 51 1003.2
20260504205404 63 42 3.5 10.4 0.00 0.04 0.04 51 1003.2
20260504204904 62 45 0.0 10.4 0.00 0.04 0.04 53 1003.2
20260504204404 62 42 0.9 7.8 0.00 0.04 0.04 51 1003.2
20260504203904 62 39 10.4 14.8 0.00 0.04 0.04 51 1003.2
20260504202904 64 27 5.2 13.9 0.00 0.04 0.04 50 1003.2
20260504202404 63 49 2.6 10.4 0.00 0.04 0.04 52 1003.1
20260504201904 63 72 3.5 15.6 0.00 0.04 0.04 51 1003.1
20260504201404 63 64 4.3 11.3 0.00 0.04 0.04 51 1003.2
20260504200904 64 27 7.8 13.0 0.00 0.04 0.04 51 1003.1